Location: Be?chatów
(51.3665°N, 19.3745°E)
Time: 21:55:18
(UTC+00:00)

Cosmos 2344 - Pass Details

Date: 19 May 2025
Orbit: 1200 x 3042 km, 63.3° (Epoch: 16 June)

Event Time Altitude Azimuth Distance (km) Brightness Sun altitude
Rises 19:12:33 0° 227° (SW) 4,382 6.5 -5.6°
Reaches altitude 10° 19:15:29 10° 228° (SW) 3,288 5.8 -6.0°
Maximum altitude 19:23:00 81° 316° (NW) 1,220 3.7 -6.8°
Drops below altitude 10° 19:30:26 10° 45° (NE) 3,257 5.8 -7.6°
Sets 19:33:20 0° 47° (NE) 4,339 6.4 -7.9°
